Laramie, WY

1:14 PM MDT on March 29, 2017 (GMT -0600)
Laramie Regional

Weather History for KLAR - September, 2012

Change the Weather History Date:

Thursday, September 27, 2012

  Actual Average Record
Temperature  
Mean Temperature 50 °F 49 °F  
Max Temperature 60 °F 64 °F 80 °F (2014)
Min Temperature 40 °F 34 °F 8 °F (1996)
Degree Days  
Heating Degree Days 15 16  
Month to date heating degree days 239 301  
Since 1 July heating degree days 296 473  
Cooling Degree Days 0 0  
Month to date cooling degree days 0 0  
Year to date cooling degree days 211 66  
Growing Degree Days 1 (Base 50)    
Moisture  
Dew Point 42 °F    
Average Humidity 76    
Maximum Humidity 96    
Minimum Humidity 55    
Precipitation  
Precipitation 0.01 in 0.03 in 0.19 in (1982)
Month to date precipitation 0.47 1.01  
Year to date precipitation 4.89 9.16  
Sea Level Pressure  
Sea Level Pressure 30.11 in    
Wind  
Wind Speed 6 mph (SW)    
Max Wind Speed 22 mph    
Max Gust Speed 28 mph    
Visibility 10 miles    
Events Rain , Thunderstorm    
T = Trace of Precipitation, MM = Missing Value Source: NWS Daily Summary

Daily Weather History Graph

Daily Weather History Graph

Search for Another Location

Airport or City:

Trip Planner

Search our weather history database for the weather conditions in past years. The results will help you decide how hot, cold, wet, or windy it might be!

Date:

Astronomy

Sep. 27, 2012 Rise Set
Actual Time 6:55 AM MDT 6:50 PM MDT
Civil Twilight 6:28 AM MDT 7:17 PM MDT
Nautical Twilight 5:56 AM MDT 7:49 PM MDT
Astronomical Twilight 5:23 AM MDT 8:22 PM MDT
Moon 5:24 PM MDT (9/27) 4:26 AM MDT (9/27)
Length of Visible Light 12h 49m
Length of Day
11h 54m
Waxing Gibbous, 94% of the Moon is Illuminated
Sep 27
Waxing Gibbous
Sep 29
Full
Oct 8
Last Quarter
Oct 15
New
Oct 21
First Quarter

Hourly Weather History & Observations

Time (MDT) Temp. Windchill Dew Point Humidity Pressure Visibility Wind Dir Wind Speed Gust Speed Precip Events Conditions
12:53 AM 46.9 °F - 44.1 °F 90% 30.05 in 10.0 mi SSE 10.4 mph - N/A   Overcast
1:53 AM 46.0 °F 41.9 °F 44.1 °F 93% 30.05 in 10.0 mi SE 8.1 mph - N/A   Overcast
2:53 AM 45.0 °F 40.6 °F 43.0 °F 93% 30.03 in 10.0 mi South 8.1 mph - N/A   Mostly Cloudy
3:53 AM 44.1 °F - 42.1 °F 93% 30.03 in 10.0 mi Calm Calm - N/A   Overcast
4:53 AM 44.1 °F 40.1 °F 42.1 °F 93% 30.06 in 10.0 mi South 6.9 mph - N/A   Overcast
5:53 AM 43.0 °F 38.8 °F 41.0 °F 93% 30.09 in 10.0 mi SSW 6.9 mph - N/A   Mostly Cloudy
6:53 AM 45.0 °F 43.5 °F 41.0 °F 86% 30.09 in 10.0 mi NW 3.5 mph - N/A   Overcast
7:53 AM 46.9 °F - 41.0 °F 80% 30.09 in 10.0 mi Calm Calm - N/A   Overcast
8:53 AM 46.9 °F - 41.0 °F 80% 30.11 in 10.0 mi North 3.5 mph - 0.00 in Rain Light Rain
9:53 AM 46.0 °F 43.9 °F 43.0 °F 89% 30.13 in 10.0 mi South 4.6 mph - 0.01 in   Overcast
10:53 AM 46.9 °F - 42.1 °F 83% 30.13 in 10.0 mi SE 3.5 mph - N/A   Overcast
11:53 AM 46.9 °F - 43.0 °F 86% 30.12 in 10.0 mi SSE 5.8 mph - N/A   Overcast
12:40 PM 50.0 °F - 42.8 °F 76% 30.28 in 10.0 mi South 4.6 mph - N/A   Overcast
12:53 PM 53.1 °F - 41.0 °F 64% 30.08 in 10.0 mi Variable 4.6 mph - N/A   Scattered Clouds
1:53 PM 54.0 °F - 41.0 °F 62% 30.06 in 10.0 mi SW 5.8 mph - N/A   Mostly Cloudy
2:53 PM 57.0 °F - 41.0 °F 55% 30.03 in 10.0 mi West 4.6 mph - N/A   Partly Cloudy
3:23 PM 59.0 °F - 42.8 °F 55% 30.23 in 10.0 mi WSW 8.1 mph - N/A Thunderstorm Thunderstorm
3:38 PM 57.2 °F - 42.8 °F 59% 30.23 in 10.0 mi WNW 8.1 mph - N/A   Mostly Cloudy
3:53 PM 57.0 °F - 41.0 °F 55% 30.02 in 10.0 mi WNW 9.2 mph - N/A   Mostly Cloudy
4:33 PM 53.6 °F - 42.8 °F 67% 30.24 in 10.0 mi NNE 16.1 mph 27.6 mph N/A   Overcast
4:43 PM 51.8 °F - 42.8 °F 71% 30.24 in 10.0 mi North 18.4 mph - 0.00 in Rain , Thunderstorm Light Rain
4:53 PM 53.1 °F - 42.1 °F 66% 30.06 in 10.0 mi North 18.4 mph - 0.00 in   Mostly Cloudy
5:53 PM 55.9 °F - 39.9 °F 55% 30.05 in 10.0 mi NNW 8.1 mph - N/A   Mostly Cloudy
6:53 PM 53.1 °F - 42.1 °F 66% 30.08 in 10.0 mi WNW 10.4 mph - N/A   Overcast
7:53 PM 51.1 °F - 44.1 °F 77% 30.09 in 10.0 mi WSW 6.9 mph - 0.00 in   Overcast
8:53 PM 48.0 °F - 43.0 °F 83% 30.11 in 10.0 mi WSW 5.8 mph - N/A   Scattered Clouds
9:53 PM 44.1 °F 42.5 °F 41.0 °F 89% 30.15 in 10.0 mi South 3.5 mph - N/A   Clear
11:53 PM 42.1 °F 40.2 °F 39.0 °F 89% 30.15 in 10.0 mi SSW 3.5 mph - N/A   Partly Cloudy